Regional Weather Roundup
Issued by NWS

Home | Current Version | Previous Version | Text Only | Print | Product List | Glossary Off
Versions: 1 2 3 4 5 6 7 8 9 10 11 12 13 14 15 16 17 18 19 20 21 22 23 24 25 26 27 28 29 30 31 32 33 34 35 36 37 38 39 40 41 42 43 44 45 46 47 48 49 50

000
ASUS43 KDTX 160510
RWRMI
MICHIGAN HOURLY REGIONAL WEATHER ROUNDUP
NATIONAL WEATHER SERVICE DETROIT/PONTIAC MI
100 AM EDT WED APR 16 2014

NOTE: "FAIR" INDICATES FEW OR NO CLOUDS BELOW 12,000 FEET WITH NO
SIGNIFICANT WEATHER AND/OR OBSTRUCTION TO VISIBILITY.

MIZ047>049-052>055-059>063-066>070-074>076-081>083-160600-
SOUTHEAST LOWER MICHIGAN

CITY           SKY/WX    TMP DP  RH WIND       PRES   REMARKS
ADRIAN         CLEAR     25  11  55 W3        30.26R
ALMA           CLEAR     26  15  61 SW3       30.24S
ANN ARBOR      CLEAR     23  15  71 W3        30.25R
BAD AXE        CLEAR     21  17  85 CALM      30.23R
CARO           CLEAR     22  17  80 CALM      30.24R
DETROIT CITY   CLEAR     29  13  51 CALM      30.26R
DETROIT        PTCLDY    28  13  53 CALM      30.26R
FLINT          CLEAR     25  16  68 SW5       30.25R WCI  19
GROSSE ILE     CLEAR     27  19  74 CALM      30.25R
HILLSDALE      CLEAR     22  10  58 CALM      30.23R
HOWELL         CLEAR     23  11  60 CALM      30.24R

CITY           SKY/WX    TMP DP  RH WIND       PRES   REMARKS
JACKSON        CLEAR     22  12  65 CALM      30.24R
LAMBERTVILLE   CLEAR     28  16  59 CALM      30.27R
LANSING        CLEAR     25  12  58 W6        30.25R WCI  18
LAPEER         FAIR      20  17  89 CALM      30.24R
MASON          CLEAR     24  17  74 CALM      30.24R
MONROE         CLEAR     27  19  74 CALM      30.25R
MT. CLEMENS    CLEAR     25  10  53 CALM      30.24R
PONTIAC        CLEAR     25  12  58 CALM      30.22R
PORT HOPE        N/A     25  13  60 CALM      30.22R
PORT HURON     CLEAR     21  18  86 CALM      30.25R
TRI CITIES     CLEAR     27  15  61 SW6       30.24R WCI  20
TROY           CLEAR     28  13  54 CALM      30.26R
SAGINAW HB     CLEAR     28  19  69 W3        30.24R
YPSILANTI      CLEAR     27  13  55 W3        30.26R
$$
MIZ043>046-050>051-056>058-064>065-071>073-077>080-160600-
SOUTHWEST LOWER MICHIGAN

CITY           SKY/WX    TMP DP  RH WIND       PRES   REMARKS
BATTLE CREEK   CLEAR     25  13  60 CALM      30.24R
BENTON HARBOR  CLEAR     24  16  71 E5        30.24R WCI  18
BIG RAPIDS     CLEAR     25  16  68 W5        30.21S WCI  19
COLDWATER      CLEAR     23  16  74 CALM      30.24S
FREMONT        FAIR      24  16  69 CALM      30.22F
HOLLAND        CLEAR     26  17  68 SE5       30.24S WCI  20
GRAND RAPIDS   CLEAR     27  16  63 SW3       30.24R
IONIA          FAIR      25  16  67 W5        30.23S WCI  19
KALAMAZOO      CLEAR     26  15  63 CALM      30.24R
LUDINGTON      PTCLDY    29  22  73 SW8       30.22S WCI  21
MARSHALL       CLEAR     22  11  64 S5        30.24R WCI  15
MOUNT PLEASANT CLEAR     26  15  61 CALM      30.23R
MUSKEGON       CLEAR     25  16  68 SE5       30.24S WCI  19
SOUTH HAVEN    CLEAR     24  16  71 E3        30.24S
$$
MIZ016>042-160600-
NORTHERN LOWER MICHIGAN

CITY           SKY/WX    TMP DP  RH WIND       PRES   REMARKS
ALPENA         MOCLDY    19  15  84 CALM      30.21R
BEAVER ISLAND  FOG       13  11  92 CALM      30.22R VSB 1
BELLAIRE       CLOUDY    26  21  80 SW5       30.22R WCI  21
CADILLAC       CLEAR     20  15  79 SW7       30.17S WCI  11
CHARLEVOIX     CLEAR     20  19  96 CALM      30.25R
FRANKFORT      PTCLDY    30  16  55 NW8       30.20R WCI  22
GAYLORD        CLOUDY    18  12  77 SW3       30.16R
GRAYLING       PTCLDY    13  10  89 CALM      30.19R
HARBOR SPRINGS CLOUDY    23  18  83 CALM      30.21R
HOUGHTON LAKE  CLEAR     22  14  71 SW3       30.19R
MANISTEE       CLOUDY    27  19  74 S3        30.22R
OSCODA         CLEAR     17  12  81 SW3       30.22R
PELLSTON       PTCLDY    13  12  96 CALM      30.22R
ROGERS CITY    CLOUDY    22  19  91 W3        30.22S
TRAVERSE CITY  LGT SNOW  25  20  81 SW3       30.21R
$$
MIZ007>008-015-160600-
EASTERN UPPER MICHIGAN

CITY           SKY/WX    TMP DP  RH WIND       PRES   REMARKS
KINROSS        CLEAR     10   9  92 W3        30.20R
MACKINAC ISLAN CLEAR     16  12  85 W3        30.20S
NEWBERRY       CLEAR      2   0  91 SW3       30.18S
S. S. MARIE    CLEAR     13   8  81 SW3       30.19R
MUNISING         N/A     13   7  77 S6        30.19R WCI   4
$$
MIZ004>006-011>014-085-160600-
CENTRAL UPPER MICHIGAN

CITY           SKY/WX    TMP DP  RH WIND       PRES   REMARKS
MANISTIQUE     CLEAR     10   8  90 W3        30.20S
ESCANABA       CLEAR     16  12  86 CALM      30.19R
MENOMINEE      CLEAR     25  18  74 CALM      30.18R
SAWYER-GWINN   CLEAR      5   2  86 CALM      30.15R
$$
MIZ001>003-009>011-084-160600-
WESTERN UPPER MICHIGAN

CITY           SKY/WX    TMP DP  RH WIND       PRES   REMARKS
IRON MOUNTAIN  CLEAR     13   8  81 CALM      30.15R
HOUGHTON       CLEAR     13  -1  54 CALM      30.12R
COPPER HARBOR    N/A     19   6  57 SW6       30.14S WCI  11
IRONWOOD       CLEAR     16   9  73 CALM      30.10R
$$

ABBREVIATIONS USED IN REMARKS
   TC - TEMPERATURE IN CELSIUS
  WCI - WIND CHILL INDEX
   HX - HEAT INDEX
  VSB - VISIBILITY




USA.gov is the U.S. government's official web portal to all federal, state and local government web resources and services.